Location: Eastlake (historical)
(39.0077°N, 122.6678°W)
Time: 10:08:55
(UTC+00:00)

Milstar 3 Cent rocket - Pass Details

Date: 25 November 2020
Orbit: 706 x 5147 km, 28.3° (Epoch: 25 January)

Event Time Altitude Azimuth Distance (km) Brightness Sun altitude
Exits shadow 13:10:24 20° 231° (SW) 2,557 4.3 -21.9°
Maximum altitude 13:15:44 46° 168° (SSE) 2,170 4.4 -20.9°
Drops below altitude 10° 13:30:00 10° 102° (ESE) 5,916 7.8 -18.2°
Sets 13:36:26 0° 98° (E) 7,693 8.9 -17.0°
